Coldwater, MI

3:53 PM EDT on June 26, 2017 (GMT -0400)
Branch County Memorial

Weather History for KOEB - May, 2013

Change the Weather History Date:

Friday, May 17, 2013

  Actual Average (KJYM) Record (KJYM)
Temperature  
Mean Temperature 65 °F -  
Max Temperature 77 °F 69 °F 90 °F (1962)
Min Temperature 53 °F 46 °F 28 °F (1973)
Growing Degree Days 15 (Base 50)    
Moisture  
Dew Point 40 °F    
Average Humidity 41    
Maximum Humidity 60    
Minimum Humidity 26    
Precipitation  
Precipitation 0.00 in - - ()
Sea Level Pressure  
Sea Level Pressure 30.06 in    
Wind  
Wind Speed 7 mph (East)    
Max Wind Speed 13 mph    
Max Gust Speed 20 mph    
Visibility 10 miles    
Events      
Averages and records for this station are not official NWS values.
T = Trace of Precipitation, MM = Missing Value Source: NWS Daily Summary

Daily Weather History Graph

Daily Weather History Graph

Search for Another Location

Airport or City:

Trip Planner

Search our weather history database for the weather conditions in past years. The results will help you decide how hot, cold, wet, or windy it might be!

Date:

Astronomy

May. 17, 2013 Rise Set
Actual Time 6:17 AM EDT 8:56 PM EDT
Civil Twilight 5:45 AM EDT 9:28 PM EDT
Nautical Twilight 5:05 AM EDT 10:08 PM EDT
Astronomical Twilight 4:19 AM EDT 10:54 PM EDT
Moon 12:52 PM EDT (5/17) 1:45 AM EDT (5/17)
Length of Visible Light 15h 42m
Length of Day
14h 38m
Waxing Crescent, 45% of the Moon is Illuminated
May 17
Waxing Crescent
May 18
First Quarter
May 25
Full
May 31
Last Quarter
Jun 8
New

Hourly Weather History & Observations

Time (EDT) Temp. Dew Point Humidity Pressure Visibility Wind Dir Wind Speed Gust Speed Precip Events Conditions
12:15 AM 62.6 °F 43.5 °F 50% 30.00 in 10.0 mi NNE 4.6 mph - N/A   Clear
12:35 AM 62.6 °F 43.7 °F 50% 30.00 in 10.0 mi NNE 4.6 mph - N/A   Clear
12:55 AM 61.0 °F 44.6 °F 55% 30.00 in 10.0 mi NE 4.6 mph - N/A   Clear
1:15 AM 61.2 °F 43.7 °F 53% 30.00 in 10.0 mi ENE 4.6 mph - N/A   Clear
1:35 AM 61.5 °F 43.2 °F 51% 30.00 in 10.0 mi East 4.6 mph - N/A   Clear
1:55 AM 59.2 °F 44.1 °F 57% 30.00 in 10.0 mi NE 6.9 mph - N/A   Clear
2:15 AM 59.4 °F 44.4 °F 58% 30.01 in 10.0 mi NE 8.1 mph - N/A   Clear
2:35 AM 58.1 °F 44.2 °F 60% 30.01 in 10.0 mi ENE 6.9 mph - N/A   Clear
2:55 AM 59.5 °F 44.1 °F 57% 30.01 in 10.0 mi East 8.1 mph - N/A   Clear
3:15 AM 59.4 °F 42.4 °F 54% 30.01 in 10.0 mi East 6.9 mph - N/A   Clear
3:35 AM 58.3 °F 41.2 °F 53% 30.02 in 10.0 mi East 4.6 mph - N/A   Clear
3:55 AM 57.7 °F 39.9 °F 51% 30.02 in 10.0 mi ENE 8.1 mph - N/A   Clear
4:15 AM 56.3 °F 39.9 °F 54% 30.02 in 10.0 mi East 9.2 mph - N/A   Clear
4:34 AM 56.1 °F 38.1 °F 51% 30.03 in 10.0 mi East 8.1 mph - N/A   Clear
4:55 AM 54.9 °F 37.8 °F 53% 30.03 in 10.0 mi East 5.8 mph - N/A   Clear
5:15 AM 54.5 °F 37.4 °F 52% 30.04 in 10.0 mi East 4.6 mph - N/A   Clear
5:34 AM 54.5 °F 36.9 °F 51% 30.05 in 10.0 mi ESE 4.6 mph - N/A   Clear
5:55 AM 53.8 °F 37.2 °F 54% 30.06 in 10.0 mi East 5.8 mph - N/A   Clear
6:15 AM 53.6 °F 37.4 °F 54% 30.05 in 10.0 mi East 8.1 mph - N/A   Clear
6:34 AM 53.6 °F 37.2 °F 54% 30.06 in 10.0 mi East 6.9 mph - N/A   Clear
6:55 AM 54.0 °F 37.0 °F 53% 30.06 in 10.0 mi East 6.9 mph - N/A   Clear
7:14 AM 54.0 °F 36.9 °F 52% 30.07 in 10.0 mi East 6.9 mph - N/A   Clear
7:35 AM 55.8 °F 36.9 °F 49% 30.07 in 10.0 mi ESE 4.6 mph - N/A   Clear
7:55 AM 57.9 °F 36.1 °F 44% 30.09 in 10.0 mi ESE 4.6 mph - N/A   Clear
8:14 AM 59.0 °F 35.6 °F 42% 30.09 in 10.0 mi East 4.6 mph - N/A   Clear
8:35 AM 60.4 °F 36.0 °F 40% 30.09 in 10.0 mi East 9.2 mph - N/A   Clear
8:55 AM 60.3 °F 36.3 °F 41% 30.10 in 10.0 mi East 10.4 mph - N/A   Clear
9:15 AM 62.1 °F 36.0 °F 38% 30.10 in 10.0 mi East 9.2 mph - N/A   Clear
9:35 AM 63.5 °F 35.8 °F 36% 30.10 in 10.0 mi ESE 10.4 mph 16.1 mph N/A   Clear
9:54 AM 64.6 °F 36.5 °F 35% 30.10 in 10.0 mi SE 10.4 mph - N/A   Clear
10:15 AM 66.2 °F 36.1 °F 33% 30.10 in 10.0 mi ESE 12.7 mph 17.3 mph N/A   Clear
10:35 AM 67.3 °F 36.9 °F 33% 30.10 in 10.0 mi ESE 9.2 mph 16.1 mph N/A   Clear
10:54 AM 68.5 °F 37.6 °F 32% 30.10 in 10.0 mi East 12.7 mph - N/A   Clear
11:15 AM 69.6 °F 38.5 °F 32% 30.09 in 10.0 mi East 8.1 mph - N/A   Clear
11:35 AM 69.8 °F 39.2 °F 33% 30.09 in 10.0 mi East 10.4 mph - N/A   Clear
11:55 AM 71.1 °F 39.6 °F 32% 30.09 in 10.0 mi East 9.2 mph - N/A   Clear
12:15 PM 71.4 °F 39.6 °F 31% 30.10 in 10.0 mi ESE 11.5 mph - N/A   Clear
12:35 PM 72.9 °F 40.1 °F 31% 30.09 in 10.0 mi East 10.4 mph - N/A   Clear
1:15 PM 73.4 °F 40.6 °F 31% 30.09 in 10.0 mi East 9.2 mph - N/A   Scattered Clouds
1:35 PM 74.3 °F 42.1 °F 31% 30.09 in 10.0 mi East 6.9 mph - N/A   Clear
1:55 PM 74.3 °F 41.7 °F 31% 30.08 in 10.0 mi East 8.1 mph - N/A   Clear
2:15 PM 74.8 °F 42.4 °F 31% 30.08 in 10.0 mi ESE 5.8 mph - N/A   Clear
2:35 PM 75.6 °F 42.4 °F 31% 30.08 in 10.0 mi East 9.2 mph - N/A   Clear
3:15 PM 77.7 °F 42.6 °F 29% 30.07 in 10.0 mi ENE 6.9 mph - N/A   Clear
3:34 PM 77.0 °F 41.2 °F 28% 30.07 in 10.0 mi ESE 10.4 mph - N/A   Clear
3:55 PM 77.9 °F 41.4 °F 27% 30.06 in 10.0 mi East 10.4 mph - N/A   Clear
4:15 PM 77.9 °F 40.5 °F 26% 30.06 in 10.0 mi ESE 10.4 mph - N/A   Mostly Cloudy
4:34 PM 77.2 °F 40.6 °F 27% 30.05 in 10.0 mi ESE 9.2 mph - N/A   Scattered Clouds
4:55 PM 77.2 °F 40.8 °F 27% 30.04 in 10.0 mi East 8.1 mph - N/A   Scattered Clouds
5:15 PM 77.0 °F 40.6 °F 27% 30.04 in 10.0 mi East 10.4 mph 16.1 mph N/A   Scattered Clouds
5:34 PM 77.5 °F 40.6 °F 27% 30.04 in 10.0 mi ENE 10.4 mph - N/A   Clear
5:55 PM 76.8 °F 40.3 °F 27% 30.05 in 10.0 mi East 12.7 mph 18.4 mph N/A   Scattered Clouds
6:15 PM 75.9 °F 41.0 °F 29% 30.05 in 10.0 mi East 11.5 mph - N/A   Mostly Cloudy
6:35 PM 75.2 °F 41.4 °F 30% 30.05 in 10.0 mi East 10.4 mph - N/A   Overcast
6:55 PM 74.3 °F 41.7 °F 31% 30.05 in 10.0 mi East 10.4 mph - N/A   Overcast
7:15 PM 73.4 °F 41.4 °F 31% 30.06 in 10.0 mi ESE 10.4 mph - N/A   Overcast
7:35 PM 72.7 °F 41.4 °F 32% 30.06 in 10.0 mi ESE 9.2 mph - N/A   Overcast
7:55 PM 72.0 °F 42.1 °F 34% 30.07 in 10.0 mi ESE 11.5 mph - N/A   Overcast
8:15 PM 70.9 °F 43.2 °F 37% 30.07 in 10.0 mi ESE 11.5 mph - N/A   Overcast
8:35 PM 70.0 °F 44.2 °F 40% 30.08 in 10.0 mi ESE 10.4 mph 16.1 mph N/A   Overcast
8:55 PM 68.9 °F 43.9 °F 40% 30.08 in 10.0 mi ESE 6.9 mph - N/A   Mostly Cloudy
9:14 PM 68.0 °F 42.8 °F 40% 30.09 in 10.0 mi East 10.4 mph - N/A   Mostly Cloudy
9:35 PM 67.1 °F 41.5 °F 39% 30.09 in 10.0 mi ESE 12.7 mph 19.6 mph N/A   Mostly Cloudy
9:55 PM 66.4 °F 38.8 °F 36% 30.10 in 10.0 mi ESE 8.1 mph 18.4 mph N/A   Scattered Clouds
10:14 PM 65.5 °F 39.0 °F 38% 30.13 in 10.0 mi SSE 5.8 mph - N/A   Clear
10:35 PM 64.6 °F 39.0 °F 39% 30.12 in 10.0 mi ESE 8.1 mph - N/A   Clear
10:55 PM 63.3 °F 39.4 °F 41% 30.13 in 10.0 mi SE 9.2 mph - N/A   Clear
11:14 PM 61.9 °F 40.3 °F 45% 30.12 in 10.0 mi ESE 8.1 mph - N/A   Clear
11:35 PM 60.6 °F 40.3 °F 47% 30.12 in 10.0 mi ESE 6.9 mph - N/A   Clear
11:55 PM 59.9 °F 40.1 °F 48% 30.12 in 10.0 mi East 11.5 mph - N/A   Clear